• In Uzbekistan
  • List of Countries
  • For 7 days
  • Water Temperature
  • Satellite Maps
  • Weather Map
  • Weather Widgets
  • user-avatar
    Login

    Hourly Weather Solden

    Today, 21 January, Sunday

    Time Temperature Precipitation Wind Pressure Humidity
    00:00 -10°C° 1 mm 2 mps 568 mmHg 93%
    01:00 -10°C° 1 mm 2 mps 568 mmHg 93%
    02:00 -9°C° 1.1 mm 2 mps 568 mmHg 93%
    03:00 -9°C° 1.1 mm 2 mps 568 mmHg 93%
    04:00 -8°C° 1.1 mm 2 mps 569 mmHg 93%
    05:00 -8°C° 0.9 mm 2 mps 569 mmHg 93%
    06:00 -8°C° 0.9 mm 2 mps 570 mmHg 92%
    07:00 -9°C° 0.9 mm 3 mps 570 mmHg 92%
    08:00 -9°C° 0.5 mm 3 mps 571 mmHg 91%
    09:00 -9°C° 0.5 mm 3 mps 571 mmHg 89%
    10:00 -9°C° 0.5 mm 3 mps 572 mmHg 88%
    11:00 -8°C° 0.3 mm 3 mps 572 mmHg 86%
    12:00 -8°C° 0.3 mm 3 mps 573 mmHg 84%
    13:00 -8°C° 0.3 mm 3 mps 574 mmHg 82%
    14:00 -9°C° 0.2 mm 3 mps 574 mmHg 82%
    15:00 -9°C° 0.2 mm 3 mps 574 mmHg 83%
    16:00 -10°C° 0.2 mm 3 mps 575 mmHg 83%
    17:00 -12°C° 0.1 mm 3 mps 575 mmHg 83%
    18:00 -13°C° 0.1 mm 3 mps 575 mmHg 84%
    19:00 -13°C° 0.1 mm 2 mps 575 mmHg 85%
    20:00 -13°C° 0.2 mm 2 mps 575 mmHg 85%
    21:00 -13°C° 0.2 mm 2 mps 575 mmHg 85%
    22:00 -13°C° 0.2 mm 2 mps 575 mmHg 85%
    23:00 -12°C° 0.3 mm 2 mps 575 mmHg 85%

    Tomorrow, 22 January, Monday

    Time Temperature Precipitation Wind Pressure Humidity
    00:00 -12°C° 0.3 mm 2 mps 575 mmHg 86%
    01:00 -9°C° 0.3 mm 1 mps 576 mmHg 86%
    02:00 -10°C° 0.9 mm 2 mps 575 mmHg 87%
    03:00 -9°C° 0.9 mm 2 mps 575 mmHg 89%
    04:00 -8°C° 0.9 mm 2 mps 575 mmHg 90%
    05:00 -8°C° 1.6 mm 2 mps 575 mmHg 91%
    06:00 -8°C° 1.6 mm 2 mps 575 mmHg 91%
    07:00 -8°C° 1.6 mm 2 mps 575 mmHg 92%
    08:00 -7°C° 1.6 mm 2 mps 575 mmHg 92%
    09:00 -7°C° 1.6 mm 2 mps 576 mmHg 92%
    10:00 -4°C° 1.6 mm 1 mps 577 mmHg 91%
    11:00 -5°C° 0.7 mm 2 mps 577 mmHg 92%
    12:00 -4°C° 0.7 mm 2 mps 577 mmHg 92%
    13:00 -3°C° 0.7 mm 2 mps 578 mmHg 92%
    14:00 -3°C° 0.1 mm 2 mps 578 mmHg 91%
    15:00 -3°C° 0.1 mm 2 mps 578 mmHg 91%
    16:00 -4°C° 0.1 mm 2 mps 578 mmHg 90%
    17:00 -4°C° 0 mm 2 mps 578 mmHg 89%
    18:00 -5°C° 0 mm 2 mps 577 mmHg 88%
    19:00 -6°C° 0 mm 2 mps 577 mmHg 87%
    20:00 -6°C° 0 mm 2 mps 578 mmHg 87%
    21:00 -6°C° 0 mm 2 mps 578 mmHg 87%
    22:00 -6°C° 0 mm 2 mps 578 mmHg 87%
    23:00 -6°C° 0.1 mm 2 mps 578 mmHg 88%

    Day after tomorrow, 23 January, Tuesday

    Time Temperature Precipitation Wind Pressure Humidity
    00:00 -6°C° 0.1 mm 2 mps 579 mmHg 88%
    01:00 -6°C° 0.1 mm 2 mps 579 mmHg 88%
    02:00 -7°C° 0 mm 2 mps 579 mmHg 88%
    03:00 -7°C° 0 mm 2 mps 579 mmHg 88%
    04:00 -8°C° 0 mm 2 mps 579 mmHg 88%
    05:00 -9°C° 0 mm 2 mps 579 mmHg 88%
    06:00 -9°C° 0 mm 2 mps 579 mmHg 88%
    07:00 -10°C° 0 mm 2 mps 580 mmHg 88%
    08:00 -8°C° 0 mm 2 mps 581 mmHg 87%
    09:00 -7°C° 0 mm 2 mps 581 mmHg 86%
    10:00 -6°C° 0 mm 2 mps 582 mmHg 86%
    11:00 -5°C° 0 mm 2 mps 583 mmHg 86%
    12:00 -3°C° 0 mm 2 mps 584 mmHg 86%
    13:00 -2°C° 0 mm 2 mps 584 mmHg 86%
    14:00 -1°C° 0 mm 1 mps 584 mmHg 86%
    15:00 -1°C° 0 mm 1 mps 584 mmHg 85%
    16:00 -2°C° 0 mm 1 mps 584 mmHg 84%
    17:00 -4°C° 0 mm 1 mps 583 mmHg 79%
    18:00 -6°C° 0 mm 1 mps 583 mmHg 75%
    19:00 -8°C° 0 mm 1 mps 582 mmHg 70%
    20:00 -8°C° 0 mm 1 mps 583 mmHg 67%
    21:00 -9°C° 0 mm 1 mps 583 mmHg 64%
    22:00 -9°C° 0 mm 1 mps 583 mmHg 61%
    23:00 -9°C° 0 mm 1 mps 583 mmHg 60%

    24 January, Wednesday

    Time Temperature Precipitation Wind Pressure Humidity
    00:00 -9°C° 0 mm 1 mps 583 mmHg 59%
    01:00 -9°C° 0 mm 1 mps 583 mmHg 58%
    02:00 -9°C° 0 mm 1 mps 583 mmHg 57%
    03:00 -9°C° 0 mm 1 mps 583 mmHg 57%
    04:00 -9°C° 0 mm 1 mps 583 mmHg 56%
    05:00 -9°C° 0 mm 1 mps 583 mmHg 55%
    06:00 -9°C° 0 mm 1 mps 583 mmHg 55%
    07:00 -9°C° 0 mm 1 mps 583 mmHg 54%
    08:00 -7°C° 0 mm 1 mps 584 mmHg 58%
    09:00 -4°C° 0 mm 1 mps 585 mmHg 62%
    10:00 -2°C° 0 mm 1 mps 586 mmHg 66%
    11:00 -2°C° 0 mm 1 mps 586 mmHg 72%
    12:00 -1°C° 0 mm 1 mps 587 mmHg 79%
    13:00 0°C° 0 mm 1 mps 587 mmHg 85%
    14:00 0°C° 0 mm 1 mps 586 mmHg 84%
    15:00 -1°C° 0 mm 1 mps 586 mmHg 84%
    16:00 -1°C° 0 mm 1 mps 585 mmHg 83%
    17:00 -3°C° 0 mm 1 mps 585 mmHg 81%
    18:00 -7°C° 0 mm 2 mps 584 mmHg 79%
    19:00 -8°C° 0 mm 2 mps 583 mmHg 76%
    20:00 -8°C° 0 mm 2 mps 583 mmHg 74%
    21:00 -9°C° 0 mm 2 mps 583 mmHg 72%
    22:00 -9°C° 0 mm 2 mps 583 mmHg 71%
    23:00 -9°C° 0 mm 2 mps 583 mmHg 70%

    25 January, Thursday

    Time Temperature Precipitation Wind Pressure Humidity
    00:00 -9°C° 0 mm 2 mps 583 mmHg 69%
    01:00 -9°C° 0 mm 2 mps 583 mmHg 68%
    02:00 -9°C° 0 mm 2 mps 582 mmHg 68%
    03:00 -9°C° 0 mm 2 mps 582 mmHg 68%
    04:00 -9°C° 0 mm 2 mps 581 mmHg 68%
    05:00 -9°C° 0 mm 2 mps 581 mmHg 69%
    06:00 -9°C° 0 mm 2 mps 581 mmHg 69%
    07:00 -10°C° 0 mm 2 mps 581 mmHg 70%
    08:00 -8°C° 0 mm 2 mps 582 mmHg 72%
    09:00 -7°C° 0 mm 2 mps 582 mmHg 74%
    10:00 -5°C° 0 mm 2 mps 583 mmHg 76%
    11:00 -4°C° 0 mm 2 mps 583 mmHg 79%
    12:00 -3°C° 0 mm 2 mps 583 mmHg 82%
    13:00 -3°C° 0 mm 2 mps 583 mmHg 85%
    14:00 -3°C° 0 mm 2 mps 582 mmHg 87%
    15:00 -3°C° 0 mm 2 mps 582 mmHg 88%
    16:00 -2°C° 0 mm 1 mps 582 mmHg 90%
    17:00 -3°C° 0 mm 1 mps 581 mmHg 90%
    18:00 -4°C° 0 mm 1 mps 581 mmHg 90%
    19:00 -6°C° 0 mm 1 mps 580 mmHg 90%
    20:00 -7°C° 0 mm 1 mps 580 mmHg 90%
    21:00 -7°C° 0 mm 1 mps 580 mmHg 89%
    22:00 -7°C° 0 mm 1 mps 580 mmHg 89%
    23:00 -7°C° 0 mm 1 mps 579 mmHg 89%

    26 January, Friday

    Time Temperature Precipitation Wind Pressure Humidity
    00:00 -8°C° 0 mm 1 mps 579 mmHg 88%
    01:00 -8°C° 0 mm 1 mps 579 mmHg 88%
    02:00 -8°C° 0 mm 1 mps 579 mmHg 88%
    03:00 -8°C° 0 mm 1 mps 579 mmHg 88%
    04:00 -8°C° 0 mm 1 mps 579 mmHg 88%
    05:00 -8°C° 0 mm 1 mps 579 mmHg 88%
    06:00 -8°C° 0 mm 1 mps 579 mmHg 88%
    07:00 -8°C° 0 mm 1 mps 579 mmHg 87%
    08:00 -7°C° 0 mm 1 mps 580 mmHg 87%
    09:00 -6°C° 0 mm 1 mps 581 mmHg 86%
    10:00 -4°C° 0 mm 1 mps 581 mmHg 86%
    11:00 -3°C° 0 mm 1 mps 582 mmHg 86%
    12:00 -2°C° 0 mm 1 mps 582 mmHg 86%
    13:00 -2°C° 0 mm 1 mps 582 mmHg 86%
    14:00 -2°C° 0 mm 1 mps 582 mmHg 88%
    15:00 -2°C° 0 mm 1 mps 582 mmHg 89%
    16:00 -3°C° 0 mm 1 mps 583 mmHg 91%
    17:00 -3°C° 0.1 mm 1 mps 582 mmHg 92%
    18:00 -4°C° 0.1 mm 1 mps 582 mmHg 92%
    19:00 -6°C° 0.1 mm 1 mps 582 mmHg 93%
    20:00 -6°C° 0.2 mm 1 mps 582 mmHg 92%
    21:00 -6°C° 0.2 mm 1 mps 583 mmHg 91%
    22:00 -7°C° 0.2 mm 1 mps 583 mmHg 91%
    23:00 -7°C° 0.2 mm 1 mps 583 mmHg 91%
    Show more